Weather reports worldwide

Advertisment
Yeovilton, United Kingdom (3853): temperature & dewpoint: 14.02.2020 17:00:00 - 20.02.2020 17:00:00 (GMT)Yeovilton, United Kingdom (3853): temperature -20cm & temperature -100cm: 14.02.2020 17:00:00 - 20.02.2020 17:00:00 (GMT)Yeovilton, United Kingdom (3853): wind speed & gusts: 14.02.2020 17:00:00 - 20.02.2020 17:00:00 (GMT)Yeovilton, United Kingdom (3853): wind direction: 14.02.2020 17:00:00 - 20.02.2020 17:00:00 (GMT)Yeovilton, United Kingdom (3853): reduced air pressure: 14.02.2020 17:00:00 - 20.02.2020 17:00:00 (GMT)Yeovilton, United Kingdom (3853): visibility: 14.02.2020 17:00:00 - 20.02.2020 17:00:00 (GMT)Yeovilton, United Kingdom (3853): sunshine duration: 14.02.2020 17:00:00 - 20.02.2020 17:00:00 (GMT)Yeovilton, United Kingdom (3853): precipitation: 14.02.2020 17:00:00 - 20.02.2020 17:00:00 (GMT)
Date & Time tt [°C] td [°C] tt -20cm [°C] tt -100cm [°C] ff [km/h] ff [kn] fx [km/h] fx [kn] dd ppp [hPa] vv [km] sd [min] rr [mm]
20.02.2020 17:00:00 - - - - - - - - - - - - -
20.02.2020 16:00:00 6,6 1,4 - - 35 19 83 45 W 1014,8 25 48 0,2
20.02.2020 15:00:00 6,8 1,8 - - 46 25 65 35 WNW 1013,0 35 18 0,0
20.02.2020 14:00:00 6,5 3,6 - - 18 10 67 36 W 1011,3 20 0 0,0
20.02.2020 13:00:00 5,8 3,7 - - 42 23 72 39 WNW 1010,6 7 0 1,0
20.02.2020 12:00:00 9,2 7,6 - - 26 14 65 35 W 1007,6 3,0 0 2,0
20.02.2020 11:00:00 10,5 9,5 - - 46 25 70 38 SSW 1005,5 3,5 0 0,2
20.02.2020 10:00:00 10,2 9,2 - - 41 22 63 34 SSW 1006,1 4,0 0 0,2
20.02.2020 09:00:00 10,0 8,7 7,5 7,9 39 21 63 34 SSW 1007,2 6 0 0,0
20.02.2020 08:00:00 10,0 8,4 - - 41 22 57 31 SSW 1007,6 8 0 0,2
20.02.2020 07:00:00 9,5 8,2 - - 28 15 52 28 SSW 1008,3 7 0 0,0
20.02.2020 06:00:00 9,5 7,9 - - 28 15 46 25 SW 1009,2 6 0 0,0
20.02.2020 05:00:00 9,0 7,2 - - 26 14 - - SW 1009,8 50 0 0,0
20.02.2020 04:00:00 9,3 7,8 - - 31 17 48 26 SSW 1010,5 15 0 0,0
20.02.2020 03:00:00 9,7 7,5 - - 28 15 52 28 SSW 1011,5 10 0 0,0
20.02.2020 02:00:00 9,7 7,1 - - 29 16 46 25 SSW 1012,2 15 0 0,0
20.02.2020 01:00:00 9,3 6,9 - - 24 13 - - SSW 1013,0 15 0 0,0
20.02.2020 00:00:00 9,3 7,5 - - 21 11 - - SSW 1013,8 10 - 0,0
19.02.2020 23:00:00 8,9 7,0 - - 21 11 - - SSW 1014,4 15 0 0,0
19.02.2020 22:00:00 9,0 7,3 - - 28 15 - - SSW 1015,0 15 0 0,0
19.02.2020 21:00:00 9,2 7,1 - - 24 13 - - SSW 1015,5 10 0 0,0
19.02.2020 20:00:00 9,2 7,2 - - 22 12 - - SSW 1016,1 10 0 0,0
19.02.2020 19:00:00 9,2 7,3 - - 22 12 - - SSW 1016,7 50 0 0,0
19.02.2020 18:00:00 9,0 7,8 - - 16 9 - - SSW 1016,9 10 0 0,0
19.02.2020 17:00:00 9,0 7,7 - - 15 8 - - W 1017,6 5 0 0,4
19.02.2020 16:00:00 9,8 7,3 - - 21 11 - - SW 1017,9 4,0 0 0,0
19.02.2020 15:00:00 10,1 7,3 - - 18 10 - - SSW 1018,6 10 0 0,0
19.02.2020 14:00:00 10,1 7,4 - - 18 10 - - SW 1019,7 10 0 0,0
19.02.2020 13:00:00 9,6 8,1 - - 22 12 - - SSW 1020,2 12 0 0,2
19.02.2020 12:00:00 8,5 6,8 - - 13 7 - - SSW 1021,6 7 0 0,0
19.02.2020 11:00:00 7,4 4,6 - - 18 10 - - SSW 1022,1 10 0 0,0
19.02.2020 10:00:00 6,6 4,3 - - 13 7 - - SW 1022,7 17 0 0,0
19.02.2020 09:00:00 6,3 3,1 7,4 7,9 13 7 - - SW 1022,8 12 0 0,0
19.02.2020 08:00:00 3,8 1,8 - - 13 7 - - SSW 1022,6 10 0 0,0
19.02.2020 07:00:00 3,4 1,3 - - 11 6 - - SSW 1022,5 10 0 0,0
19.02.2020 06:00:00 4,6 1,6 - - 13 7 - - WSW 1022,3 12 0 0,0
19.02.2020 05:00:00 5,1 1,8 - - 16 9 - - WSW 1022,1 7 0 -
19.02.2020 04:00:00 3,7 1,4 - - 9 5 - - SSW 1021,7 10 0 0,0
19.02.2020 03:00:00 4,5 1,8 - - 18 10 - - W 1021,4 10 0 0,0
19.02.2020 02:00:00 3,9 1,8 - - 11 6 - - W 1021,2 15 0 0,4
19.02.2020 01:00:00 4,7 1,6 - - 13 7 - - W 1020,6 6 0 0,0
19.02.2020 00:00:00 4,0 1,2 - - 16 9 - - W 1019,7 12 - 0,0
18.02.2020 23:00:00 4,9 2,0 - - 18 10 - - W 1019,0 10 0 0,0
18.02.2020 22:00:00 5,5 2,5 - - 26 14 - - W 1018,8 10 0 0,0
18.02.2020 21:00:00 5,5 3,2 - - 29 16 65 35 W 1018,0 15 0 0,6
18.02.2020 20:00:00 5,5 3,2 - - 31 17 67 36 W 1017,2 10 0 1,8
18.02.2020 19:00:00 7,3 4,7 - - 18 10 - - WSW 1016,9 10 0 0,0
18.02.2020 18:00:00 7,1 4,0 - - 16 9 55 30 WSW 1017,3 20 0 0,4
18.02.2020 17:00:00 7,3 5,2 - - 39 21 61 33 W 1017,7 7 0 1,0
18.02.2020 16:00:00 9,7 4,6 - - 28 15 - - WSW 1017,5 10 0 0,0
18.02.2020 15:00:00 9,4 4,6 - - 26 14 50 27 WSW 1018,4 10 0 0,0
18.02.2020 14:00:00 9,7 5,3 - - 26 14 50 27 WSW 1019,2 20 48 0,0
18.02.2020 13:00:00 9,0 4,2 - - 34 18 59 32 WSW 1019,8 10 18 0,2
18.02.2020 12:00:00 9,7 4,4 - - 24 13 50 27 WSW 1020,8 15 6 0,0
18.02.2020 11:00:00 9,6 4,4 - - 31 17 46 25 WSW 1021,1 10 48 0,0
18.02.2020 10:00:00 7,8 3,8 - - 16 9 - - SW 1021,3 15 0 -
18.02.2020 09:00:00 5,9 3,3 7,7 7,9 8 4 - - S 1021,5 15 12 0,0
18.02.2020 08:00:00 4,9 2,7 - - 16 9 - - SSW 1021,5 15 0 -
18.02.2020 07:00:00 4,6 2,3 - - 11 6 - - SW 1021,6 10 0 0,0
18.02.2020 06:00:00 4,7 2,2 - - 15 8 - - WSW 1021,2 20 0 0,0
18.02.2020 05:00:00 4,1 2,3 - - 9 5 - - WSW 1020,9 10 0 -
18.02.2020 04:00:00 4,9 2,8 - - 15 8 - - WSW 1021,0 8 0 0,0
18.02.2020 03:00:00 4,9 2,3 - - 16 9 - - SW 1020,8 10 0 -
18.02.2020 02:00:00 4,6 2,1 - - 15 8 - - WSW 1021,0 20 0 0,0
18.02.2020 01:00:00 4,9 1,8 - - 13 7 - - SW 1021,0 45 0 0,0
18.02.2020 00:00:00 5,1 2,3 - - 13 7 - - SW 1020,6 45 - -
17.02.2020 23:00:00 5,4 1,5 - - 21 11 - - WSW 1019,8 40 0 0,0
17.02.2020 22:00:00 5,4 2,2 - - 15 8 - - SW 1018,9 19 0 0,0
17.02.2020 21:00:00 5,6 2,2 - - 18 10 - - WSW 1018,4 22 0 0,0
17.02.2020 20:00:00 5,6 2,8 - - 13 7 - - SW 1017,6 21 0 0,0
17.02.2020 19:00:00 5,7 2,8 - - 15 8 - - SW 1016,8 35 0 0,0
17.02.2020 18:00:00 6,3 2,8 - - 22 12 52 28 WSW 1015,4 50 0 0,0
17.02.2020 17:00:00 7,1 3,9 - - 28 15 - - WSW - - 0 0,0
17.02.2020 16:00:00 8,2 4,4 - - 29 16 67 36 W - - 0 0,6
17.02.2020 15:00:00 9,2 3,8 - - 34 18 59 32 W - - 12 0,0
17.02.2020 14:00:00 9,1 5,7 - - 29 16 54 29 W 1011,3 17 12 0,0
17.02.2020 13:00:00 9,6 6,3 - - 31 17 46 25 W 1010,5 14 12 1,4
17.02.2020 12:00:00 8,3 6,3 - - 21 11 46 25 W 1009,7 4,8 0 1,0
17.02.2020 11:00:00 8,7 5,3 - - 22 12 - - WSW 1008,9 6 0 0,6
17.02.2020 10:00:00 8,1 3,8 - - 22 12 - - WSW 1008,2 23 6 0,0
17.02.2020 09:00:00 7,3 2,7 8,0 7,7 21 11 - - SW 1007,7 18 24 0,0
17.02.2020 08:00:00 6,4 1,8 - - 24 13 - - SW 1007,2 25 0 0,0
17.02.2020 07:00:00 6,0 1,1 - - 22 12 - - SW 1006,5 22 0 0,0
17.02.2020 06:00:00 5,7 0,7 - - 26 14 68 37 SW 1006,5 50 0 0,2
17.02.2020 05:00:00 7,8 2,8 - - 26 14 48 26 SW 1006,4 15 0 0,0
17.02.2020 04:00:00 7,8 3,1 - - 31 17 59 32 SW 1005,8 25 0 0,0
17.02.2020 03:00:00 7,7 2,1 - - 26 14 48 26 SW 1006,6 19 0 0,0
17.02.2020 02:00:00 7,2 0,1 - - 28 15 48 26 SW 1006,6 26 0 0,0
17.02.2020 01:00:00 7,0 1,0 - - 26 14 - - SW 1006,3 12 0 0,0
17.02.2020 00:00:00 6,7 0,6 - - 24 13 52 28 SW 1006,0 17 - 0,0
16.02.2020 23:00:00 6,2 1,3 - - 29 16 48 26 SW 1004,9 10 0 0,0
16.02.2020 22:00:00 4,9 1,6 - - 24 13 76 41 SW 1004,4 30 0 0,4
16.02.2020 21:00:00 5,8 2,2 - - 22 12 65 35 WSW 1003,2 19 0 0,0
16.02.2020 20:00:00 6,5 2,1 - - 31 17 85 46 SW 1002,0 30 0 0,4
16.02.2020 19:00:00 7,7 2,2 - - 24 13 46 25 SW 1000,5 30 0 0,0
16.02.2020 18:00:00 7,8 2,8 - - 26 14 - - SW 998,9 35 6 0,0
16.02.2020 17:00:00 8,3 2,5 - - 26 14 - - SW 997,9 50 12 0,0
16.02.2020 16:00:00 8,8 4,9 - - 24 13 - - WSW 997,2 23 6 0,0
16.02.2020 15:00:00 7,6 5,8 - - 18 10 - - SW 996,3 50 0 0,2
16.02.2020 14:00:00 7,0 5,3 - - 15 8 - - SW 995,6 23 0 0,8
16.02.2020 13:00:00 7,1 5,4 - - 22 12 57 31 SW 995,6 15 0 2,6
16.02.2020 12:00:00 7,6 5,5 - - 26 14 54 29 WSW 994,9 14 0 2,8
16.02.2020 11:00:00 9,5 6,2 - - 21 11 48 26 SW 993,9 14 0 0,4
16.02.2020 10:00:00 10,1 7,4 - - 22 12 48 26 SW 993,7 10 0 0,4
16.02.2020 09:00:00 10,3 8,1 8,2 7,7 28 15 - - SW 994,0 26 0 0,0
16.02.2020 08:00:00 10,5 8,2 - - 24 13 - - SW 993,7 10 0 0,2
16.02.2020 07:00:00 9,8 8,6 - - 16 9 54 29 WSW 992,8 15 0 0,6
16.02.2020 06:00:00 10,6 9,3 - - 39 21 93 50 W 991,7 5 0 1,4
16.02.2020 05:00:00 13,1 11,8 - - 55 30 96 52 SSW 990,2 5 0 0,4
16.02.2020 04:00:00 12,9 11,9 - - 57 31 100 54 SSW 990,4 4,8 0 0,6
16.02.2020 03:00:00 12,5 11,6 - - 63 34 93 50 SSW 991,4 6 0 1,0
16.02.2020 02:00:00 12,5 11,7 - - 61 33 94 51 SSW 992,6 2,9 0 0,4
16.02.2020 01:00:00 12,6 11,7 - - 63 34 93 50 SSW 993,4 3,2 0 0,0
16.02.2020 00:00:00 12,3 11,4 - - 63 34 94 51 SSW 994,0 3,6 - 0,2
15.02.2020 23:00:00 12,4 11,4 - - 57 31 85 46 SSW 994,7 3,2 0 0,0
15.02.2020 22:00:00 12,2 11,4 - - 44 24 68 37 SSW 996,4 4,9 0 0,4
15.02.2020 21:00:00 12,4 11,5 - - 37 20 57 31 SSW 997,3 3,7 0 0,0
15.02.2020 20:00:00 13,0 11,6 - - 37 20 67 36 SSW 997,8 14 0 0,0
15.02.2020 19:00:00 12,4 11,4 - - 41 22 81 44 SSW 997,7 7 0 0,0
15.02.2020 18:00:00 12,0 11,1 - - 57 31 94 51 SSW 996,7 3,9 0 0,2
15.02.2020 17:00:00 11,9 10,9 - - 59 32 96 52 S 996,6 4,1 0 0,4
15.02.2020 16:00:00 11,9 11,0 - - 61 33 96 52 SSW 997,8 3,6 0 1,4
15.02.2020 15:00:00 11,6 10,9 - - 57 31 93 50 S 999,1 2,9 0 2,2
15.02.2020 14:00:00 11,5 10,7 - - 54 29 91 49 SSW 1000,7 6 0 1,8
15.02.2020 13:00:00 11,2 10,4 - - 52 28 81 44 S 1002,0 5 0 2,6
15.02.2020 12:00:00 11,5 10,4 - - 54 29 83 45 S 1003,8 5 0 1,2
15.02.2020 11:00:00 11,4 10,4 - - 48 26 83 45 S 1005,0 6 0 1,8
15.02.2020 10:00:00 11,5 10,2 - - 46 25 81 44 S 1006,2 2,1 0 0,4
15.02.2020 09:00:00 11,5 10,0 7,4 7,5 48 26 70 38 SSW 1007,3 11 0 0,0
15.02.2020 08:00:00 11,4 10,2 - - 46 25 76 41 S 1007,7 11 0 0,2
15.02.2020 07:00:00 11,5 10,5 - - 48 26 74 40 SSW 1008,4 9 0 0,2
15.02.2020 06:00:00 11,5 10,6 - - 41 22 63 34 SSW 1009,4 5 0 0,4
15.02.2020 05:00:00 11,4 10,6 - - 39 21 59 32 SSW 1009,8 4,0 0 0,0
15.02.2020 04:00:00 11,4 10,6 - - 39 21 54 29 SSW 1010,6 3,1 0 0,0
15.02.2020 03:00:00 11,3 10,5 - - 31 17 48 26 SSW 1011,4 9 0 0,0
15.02.2020 02:00:00 11,0 10,4 - - 24 13 - - SSW 1012,4 4,8 0 0,2
15.02.2020 01:00:00 11,0 10,2 - - 21 11 - - SSW 1013,2 17 0 0,4
15.02.2020 00:00:00 11,0 10,2 - - 24 13 - - S 1013,5 29 - 1,0
14.02.2020 23:00:00 11,0 10,2 - - 16 9 - - SSW 1014,1 16 0 0,8
14.02.2020 22:00:00 11,1 10,2 - - 29 16 - - SSW 1014,3 6 0 0,8
14.02.2020 21:00:00 11,0 10,3 - - 31 17 50 27 SSW 1014,7 2,9 0 0,2
14.02.2020 20:00:00 11,1 10,1 - - 31 17 46 25 SSW 1014,8 22 0 0,4
14.02.2020 19:00:00 10,9 10,0 - - 31 17 - - SSW 1015,2 11 0 0,6
14.02.2020 18:00:00 10,7 9,9 - - 31 17 48 26 SSW 1015,4 3,4 0 0,2
14.02.2020 17:00:00 10,6 9,6 - - 31 17 54 29 SSW 1015,2 4,3 0 0,2

tt = temperature
td = dewpoint
tt -20cm = temperature -20cm
tt -100cm = temperature -100cm
ff = wind speed
fx = gusts
dd = wind direction
ppp = reduced air pressure
vv = visibility
sd = sunshine duration
rr = precipitation

Next stations